Tracking 19149 objects as of 21-Apr-2018
HD Live streaming from Space Station
objects crossing your sky now

FENGYUN 1C DEB

Track FENGYUN 1C DEB now!
10-day predictions


NORAD ID: 30175
Int'l Code: 1999-025UG
Perigee: 855.2 km
Apogee: 1,074.7 km
Inclination: 99.6 °
Period: 104.2 minutes
Semi major axis: 7335 km
RCS: 0.0364 m2 (small)
Launch date: May 10, 1999
Source: People's Republic of China (PRC)
Launch site: Taiyaun Space Center, China (TSC)

Note: This is SATELLITE DEBRIS
aabbcc
Your satellite tracking list
Your tracking list is empty




NASA's NSSDC Master Catalog

Two Line Element Set (TLE):
1 30175U 99025UG  18111.20618441  .00000107  00000-0  13124-3 0  9991
2 30175  99.5675  99.2265 0149563  23.2258  41.0864 13.81711637567696
Source of the keplerian elements: AFSPC